Regional Weather Roundup
Issued by NWS

Home | Current Version | Previous Version | Text Only | Print | Product List | Glossary Off
Versions: 1 2 3 4 5 6 7 8 9 10 11 12 13 14 15 16 17 18 19 20 21 22 23 24 25 26 27 28 29 30 31 32 33 34 35 36 37 38 39 40 41 42 43 44 45 46 47 48 49 50

000
ASUS43 KBIS 302310
RWRND

NORTH DAKOTA REGIONAL WEATHER ROUNDUP
NATIONAL WEATHER SERVICE BISMARCK ND
600 PM CDT TUE AUG 30 2016

NOTE: "FAIR" INDICATES FEW OR NO CLOUDS BELOW 12,000 FEET WITH NO
SIGNIFICANT WEATHER AND/OR OBSTRUCTIONS TO VISIBILITY.


NDZ001>003-009>011-017-310000-
NORTHWEST NORTH DAKOTA

CITY           SKY/WX    TMP DP  RH WIND       PRES   REMARKS
WILLISTON      MOSUNNY   84  52  33 SE15      30.13S
MINOT          CLOUDY    82  47  29 E10       30.17F
MINOT AFB      CLOUDY    82  46  27 SE12      30.17F
$$

NDZ018>021-031>035-040>046-310000-
SOUTHWEST NORTH DAKOTA

CITY           SKY/WX    TMP DP  RH WIND       PRES   REMARKS
BISMARCK       SUNNY     81  48  31 SE10      30.16F
DICKINSON      CLOUDY    81  57  43 SE17      30.15S
GARRISON         N/A     79  52  38 SE9       30.16F
HETTINGER ARPT PTSUNNY   83  61  47 SE13      30.15F
$$

NDZ004>008-012>016-024-026-027-054-310000-
NORTHEAST NORTH DAKOTA

CITY           SKY/WX    TMP DP  RH WIND       PRES   REMARKS
GRAND FORKS    MOSUNNY   81  53  37 NW5       30.18F
GRND FRKS AFB  SUNNY     79  52  38 N6        30.19F
DEVILS LAKE    CLOUDY    77  51  40 SW5       30.22F
$$

NDZ022-023-025-028>030-036>039-047>053-310000-
SOUTHEAST NORTH DAKOTA

CITY           SKY/WX    TMP DP  RH WIND       PRES   REMARKS
FARGO          SUNNY     80  53  39 NE8       30.18F
JAMESTOWN      SUNNY     79  52  38 E7        30.20F
$$





USA.gov is the U.S. government's official web portal to all federal, state and local government web resources and services.